| time (UTC) | temp F | wind direction | speed knots | gust knots | rain 1hr in | rain 24hr in | rain mn in | humidity % | barometer mb |
| 20260903100002 | 70 | 204 | 1.7 | 1.7 | 0.00 | 0.11 | 0.11 | 99 | 1010.4 |
| 20260903094801 | 70 | 277 | 1.7 | 2.6 | 0.00 | 0.11 | 0.11 | 99 | 1010.6 |
| 20260903093603 | 70 | 276 | 0.0 | 0.9 | 0.00 | 0.11 | 0.11 | 99 | 1010.7 |
| 20260903092403 | 70 | 298 | 2.6 | 4.3 | 0.00 | 0.11 | 0.11 | 99 | 1010.5 |
| 20260903091202 | 70 | 282 | 0.0 | 0.9 | 0.00 | 0.11 | 0.11 | 99 | 1010.7 |
| 20260903090003 | 70 | 185 | 1.7 | 2.6 | 0.00 | 0.11 | 0.11 | 99 | 1010.6 |
| 20260903084803 | 71 | 181 | 0.0 | 0.0 | 0.00 | 0.11 | 0.11 | 99 | 1011.1 |
| 20260903083602 | 70 | 180 | 1.7 | 1.7 | 0.00 | 0.11 | 0.11 | 99 | 1011.6 |
| 20260903082403 | 70 | 191 | 2.6 | 4.3 | 0.00 | 0.11 | 0.11 | 99 | 1011.6 |
| 20260903081203 | 71 | 28 | 1.7 | 2.6 | 0.02 | 0.11 | 0.11 | 99 | 1011.8 |
| 20260903080002 | 71 | 240 | 1.7 | 1.7 | 0.07 | 0.11 | 0.11 | 99 | 1012.3 |
| 20260903074802 | 71 | 241 | 2.6 | 4.3 | 0.08 | 0.11 | 0.11 | 99 | 1012.1 |
| 20260903073602 | 70 | 317 | 0.9 | 1.7 | 0.08 | 0.11 | 0.11 | 99 | 1011.8 |
| 20260903072402 | 71 | 346 | 1.7 | 4.3 | 0.07 | 0.10 | 0.10 | 99 | 1012.4 |
| 20260903071201 | 71 | 265 | 0.0 | 0.0 | 0.06 | 0.09 | 0.09 | 99 | 1012.7 |
| 20260903070001 | 71 | 131 | 1.7 | 4.3 | 0.01 | 0.04 | 0.04 | 99 | 1012.8 |
| 20260903064803 | 72 | 13 | 1.7 | 5.2 | 0.00 | 0.03 | 0.03 | 99 | 1012.6 |
| 20260903063603 | 71 | 140 | 0.0 | 0.0 | 0.00 | 0.03 | 0.03 | 99 | 1012.4 |
| 20260903062401 | 71 | 131 | 0.0 | 0.9 | 0.01 | 0.03 | 0.03 | 97 | 1012.9 |
| 20260903061202 | 72 | 102 | 4.3 | 7.0 | 0.01 | 0.03 | 0.03 | 97 | 1012.6 |
| 20260903060001 | 73 | 17 | 1.7 | 4.3 | 0.01 | 0.03 | 0.03 | 95 | 1012.8 |
| 20260903054802 | 73 | 48 | 4.3 | 6.1 | 0.01 | 0.03 | 0.03 | 98 | 1012.6 |
| 20260903053603 | 74 | 96 | 0.0 | 0.0 | 0.02 | 0.03 | 0.03 | 94 | 1012.5 |
| 20260903052403 | 75 | 119 | 2.6 | 2.6 | 0.01 | 0.02 | 0.02 | 95 | 1011.9 |
| 20260903051202 | 74 | 129 | 1.7 | 2.6 | 0.01 | 0.02 | 0.02 | 94 | 1012.3 |
| 20260903050004 | 75 | 121 | 1.7 | 4.3 | 0.01 | 0.02 | 0.02 | 86 | 1012.3 |
| 20260903044803 | 75 | 113 | 5.2 | 7.8 | 0.01 | 0.02 | 0.02 | 92 | 1011.7 |
| 20260903043601 | 76 | 109 | 1.7 | 2.6 | 0.01 | 0.01 | 0.01 | 99 | 1011.1 |
| 20260903042403 | 76 | 141 | 0.9 | 1.7 | 0.01 | 0.01 | 0.01 | 99 | 1010.9 |
| 20260903041201 | 77 | 153 | 0.9 | 1.7 | 0.01 | 0.01 | 0.01 | 99 | 1010.9 |
| 20260903040001 | 77 | 89 | 0.9 | 1.7 | 0.01 | 0.01 | 0.01 | 99 | 1011.1 |
| 20260903034803 | 77 | 111 | 0.9 | 1.7 | 0.01 | 0.01 | 0.01 | 99 | 1011.1 |
| 20260903033603 | 79 | 101 | 1.7 | 2.6 | 0.00 | 0.00 | 0.00 | 97 | 1011.4 |
| 20260903032403 | 80 | 46 | 0.0 | 0.9 | 0.00 | 0.00 | 0.00 | 93 | 1011.0 |
| 20260903031202 | 80 | 46 | 0.0 | 0.0 | 0.00 | 0.00 | 0.00 | 92 | 1011.1 |
| 20260903030002 | 79 | 46 | 0.0 | 0.9 | 0.00 | 0.00 | 0.00 | 93 | 1011.1 |
| 20260903024802 | 80 | 64 | 0.9 | 1.7 | 0.00 | 0.00 | 0.00 | 92 | 1010.9 |
| 20260903023603 | 80 | 100 | 0.0 | 2.6 | 0.00 | 0.00 | 0.00 | 93 | 1010.6 |
| 20260903022402 | 80 | 33 | 1.7 | 4.3 | 0.00 | 0.00 | 0.00 | 90 | 1010.6 |
| 20260903021202 | 80 | 35 | 2.6 | 4.3 | 0.00 | 0.00 | 0.00 | 91 | 1010.7 |
| 20260903020001 | 80 | 44 | 0.0 | 2.6 | 0.00 | 0.00 | 0.00 | 91 | 1010.7 |
| 20260903014803 | 80 | 26 | 0.9 | 0.9 | 0.00 | 0.00 | 0.00 | 91 | 1011.2 |
| 20260903013602 | 80 | 11 | 0.9 | 1.7 | 0.00 | 0.00 | 0.00 | 91 | 1010.9 |
| 20260903012402 | 79 | 27 | 0.9 | 1.7 | 0.00 | 0.00 | 0.00 | 92 | 1011.0 |
| 20260903011202 | 79 | 46 | 0.9 | 1.7 | 0.00 | 0.00 | 0.00 | 93 | 1011.1 |
| 20260903010002 | 78 | 337 | 1.7 | 2.6 | 0.00 | 0.00 | 0.00 | 95 | 1011.3 |
| 20260903004802 | 78 | 284 | 0.9 | 1.7 | 0.00 | 0.00 | 0.00 | 95 | 1011.5 |
| 20260903003602 | 77 | 342 | 0.0 | 0.0 | 0.00 | 0.00 | 0.00 | 97 | 1011.2 |
| 20260903002404 | 78 | 88 | 0.9 | 2.6 | 0.00 | 0.00 | 0.00 | 97 | 1010.7 |
| 20260903001203 | 77 | 351 | 0.0 | 0.0 | 0.00 | 0.00 | 0.00 | 97 | 1011.2 |
| 20260903000004 | 77 | 14 | 0.0 | 0.0 | 0.00 | 0.00 | 0.00 | 97 | 1011.3 |
| 20260902234805 | 76 | 77 | 0.0 | 0.9 | 0.00 | 0.00 | 0.00 | 98 | 1011.3 |
| 20260902233603 | 76 | 40 | 0.0 | 0.9 | 0.00 | 0.00 | 0.00 | 98 | 1011.5 |
| 20260902232403 | 76 | 38 | 0.9 | 1.7 | 0.00 | 0.00 | 0.00 | 99 | 1011.4 |
| 20260902231203 | 76 | 22 | 0.0 | 0.0 | 0.00 | 0.00 | 0.00 | 99 | 1011.3 |
| 20260902230004 | 76 | 32 | 0.9 | 0.9 | 0.00 | 0.00 | 0.00 | 99 | 1011.4 |
| 20260902224804 | 75 | 17 | 0.0 | 0.0 | 0.00 | 0.00 | 0.00 | 99 | 1011.3 |
| 20260902223604 | 74 | 7 | 0.0 | 0.0 | 0.00 | 0.00 | 0.00 | 99 | 1011.0 |
| 20260902222403 | 74 | 330 | 0.9 | 1.7 | 0.00 | 0.00 | 0.00 | 99 | 1011.0 |
| 20260902221204 | 74 | 246 | 0.9 | 1.7 | 0.00 | 0.00 | 0.00 | 99 | 1010.9 |
| 20260902220004 | 74 | 299 | 0.9 | 1.7 | 0.00 | 0.00 | 0.00 | 99 | 1010.9 |
| 20260902214803 | 74 | 304 | 0.0 | 0.0 | 0.00 | 0.00 | 0.00 | 99 | 1010.8 |
| 20260902213604 | 73 | 294 | 0.0 | 0.0 | 0.00 | 0.00 | 0.00 | 99 | 1010.8 |
| 20260902212403 | 73 | 266 | 0.0 | 0.0 | 0.00 | 0.00 | 0.00 | 99 | 1011.1 |
| 20260902211203 | 73 | 271 | 0.0 | 0.0 | 0.00 | 0.00 | 0.00 | 99 | 1011.1 |
| 20260902210004 | 73 | 272 | 0.0 | 0.0 | 0.00 | 0.00 | 0.00 | 99 | 1011.3 |
| 20260902204804 | 73 | 9 | 0.0 | 0.0 | 0.00 | 0.00 | 0.00 | 99 | 1011.1 |
| 20260902203602 | 73 | 307 | 1.7 | 1.7 | 0.00 | 0.00 | 0.00 | 99 | 1011.2 |
| 20260902202403 | 73 | 220 | 1.7 | 1.7 | 0.00 | 0.00 | 0.00 | 99 | 1011.2 |
| 20260902201203 | 73 | 311 | 0.9 | 1.7 | 0.00 | 0.00 | 0.00 | 99 | 1011.0 |
| 20260902200004 | 73 | 342 | 0.0 | 0.0 | 0.00 | 0.00 | 0.00 | 99 | 1011.0 |
| 20260902194802 | 73 | 342 | 0.0 | 0.0 | 0.00 | 0.00 | 0.00 | 99 | 1011.1 |
| 20260902193602 | 73 | 346 | 0.9 | 1.7 | 0.00 | 0.00 | 0.00 | 99 | 1011.7 |
| 20260902192404 | 73 | 288 | 0.0 | 0.0 | 0.00 | 0.00 | 0.00 | 99 | 1011.8 |
| 20260902191203 | 73 | 250 | 0.0 | 0.0 | 0.00 | 0.00 | 0.00 | 99 | 1012.0 |
| 20260902190003 | 74 | 296 | 0.9 | 1.7 | 0.00 | 0.00 | 0.00 | 99 | 1011.8 |
| 20260902184803 | 73 | 246 | 0.0 | 0.0 | 0.00 | 0.00 | 0.00 | 99 | 1011.9 |
| 20260902183602 | 74 | 295 | 0.9 | 1.7 | 0.00 | 0.00 | 0.00 | 99 | 1012.0 |
| 20260902182402 | 74 | 253 | 0.9 | 1.7 | 0.00 | 0.00 | 0.00 | 99 | 1011.9 |
| 20260902181203 | 74 | 343 | 0.0 | 0.0 | 0.00 | 0.00 | 0.00 | 99 | 1012.0 |
| 20260902180004 | 74 | 343 | 0.0 | 0.0 | 0.00 | 0.00 | 0.00 | 99 | 1012.0 |
| 20260902174802 | 74 | 343 | 0.0 | 0.0 | 0.00 | 0.00 | 0.00 | 99 | 1012.2 |
| 20260902173602 | 74 | 263 | 0.0 | 0.0 | 0.00 | 0.00 | 0.00 | 99 | 1012.0 |
| 20260902172403 | 74 | 263 | 0.0 | 0.9 | 0.00 | 0.00 | 0.00 | 99 | 1012.4 |
| 20260902171201 | 74 | 262 | 0.0 | 0.0 | 0.00 | 0.00 | 0.00 | 99 | 1012.6 |
| 20260902170004 | 74 | 262 | 0.9 | 1.7 | 0.00 | 0.00 | 0.00 | 99 | 1013.0 |
| 20260902164803 | 74 | 267 | 0.0 | 0.0 | 0.00 | 0.00 | 0.00 | 99 | 1012.9 |
| 20260902163603 | 74 | 267 | 0.0 | 0.0 | 0.00 | 0.00 | 0.00 | 99 | 1012.8 |
| 20260902162403 | 74 | 267 | 0.0 | 0.0 | 0.00 | 0.00 | 0.00 | 99 | 1012.9 |
| 20260902161203 | 74 | 267 | 0.9 | 0.9 | 0.00 | 0.00 | 0.00 | 99 | 1012.8 |
| 20260902160005 | 74 | 296 | 0.9 | 1.7 | 0.00 | 0.00 | 0.00 | 99 | 1012.7 |
| 20260902154802 | 74 | 237 | 1.7 | 1.7 | 0.00 | 0.00 | 0.00 | 99 | 1012.5 |
| 20260902153602 | 74 | 201 | 1.7 | 2.6 | 0.00 | 0.00 | 0.00 | 99 | 1012.6 |
| 20260902152404 | 74 | 329 | 0.0 | 0.0 | 0.00 | 0.00 | 0.00 | 99 | 1012.8 |
| 20260902151203 | 75 | 111 | 0.9 | 0.9 | 0.00 | 0.00 | 0.00 | 99 | 1012.7 |
| 20260902150003 | 75 | 158 | 0.0 | 0.9 | 0.00 | 0.00 | 0.00 | 99 | 1013.0 |
| 20260902144802 | 75 | 217 | 0.9 | 1.7 | 0.00 | 0.00 | 0.00 | 99 | 1012.9 |
| 20260902143603 | 75 | 234 | 0.0 | 0.0 | 0.00 | 0.00 | 0.00 | 99 | 1013.3 |
| 20260902142405 | 75 | 224 | 0.0 | 0.9 | 0.00 | 0.00 | 0.00 | 99 | 1013.3 |
| 20260902141202 | 75 | 229 | 0.0 | 0.0 | 0.00 | 0.00 | 0.00 | 99 | 1013.5 |
| 20260902140004 | 75 | 246 | 0.0 | 0.0 | 0.00 | 0.00 | 0.00 | 99 | 1013.3 |
| 20260902134803 | 75 | 215 | 0.9 | 1.7 | 0.00 | 0.00 | 0.00 | 99 | 1013.5 |
| 20260902133602 | 75 | 324 | 0.9 | 0.9 | 0.00 | 0.00 | 0.00 | 99 | 1013.4 |
| 20260902132403 | 76 | 209 | 0.0 | 0.0 | 0.00 | 0.00 | 0.00 | 99 | 1013.4 |
| 20260902131201 | 76 | 210 | 0.9 | 1.7 | 0.00 | 0.00 | 0.00 | 99 | 1013.6 |
| 20260902130003 | 76 | 176 | 0.9 | 1.7 | 0.00 | 0.00 | 0.00 | 99 | 1013.3 |
| 20260902124802 | 76 | 324 | 1.7 | 2.6 | 0.00 | 0.00 | 0.00 | 99 | 1013.4 |
| 20260902123602 | 76 | 208 | 0.0 | 0.0 | 0.00 | 0.00 | 0.00 | 99 | 1013.6 |
| 20260902122402 | 76 | 223 | 1.7 | 1.7 | 0.00 | 0.00 | 0.00 | 99 | 1013.7 |
| 20260902121204 | 76 | 289 | 0.9 | 1.7 | 0.00 | 0.00 | 0.00 | 99 | 1013.6 |
| 20260902120002 | 76 | 284 | 0.0 | 0.9 | 0.00 | 0.00 | 0.00 | 99 | 1013.9 |
| 20260902114803 | 77 | 190 | 0.9 | 1.7 | 0.00 | 0.00 | 0.00 | 99 | 1013.7 |
| 20260902113603 | 77 | 217 | 0.9 | 1.7 | 0.00 | 0.00 | 0.00 | 99 | 1013.8 |
| 20260902112402 | 77 | 262 | 0.9 | 1.7 | 0.00 | 0.00 | 0.00 | 99 | 1013.7 |
| 20260902111204 | 77 | 239 | 1.7 | 1.7 | 0.00 | 0.00 | 0.00 | 98 | 1013.9 |
| 20260902110007 | 78 | 241 | 1.7 | 2.6 | 0.00 | 0.00 | 0.00 | 98 | 1013.6 |
| 20260902104802 | 78 | 206 | 0.0 | 0.9 | 0.00 | 0.00 | 0.00 | 98 | 1013.7 |
| 20260902103604 | 78 | 306 | 1.7 | 1.7 | 0.00 | 0.00 | 0.00 | 97 | 1013.8 |
| 20260902102402 | 78 | 200 | 0.0 | 0.9 | 0.00 | 0.00 | 0.00 | 97 | 1013.6 |
| 20260902101203 | 78 | 217 | 0.9 | 0.9 | 0.00 | 0.00 | 0.00 | 96 | 1013.2 |